Location: Newark
(38.7000°N, 9.1833°W)
Time: 10:50:52
(UTC+00:00)

Envisat - Pass Details

Date: 24 October 2019
Orbit: 764 x 766 km, 98.1° (Epoch: 18 November)

Event Time Altitude Azimuth Distance (km) Brightness Sun altitude
Rises 19:59:26 0° 210° (SSW) 3,219 6.5 -26.5°
Reaches altitude 10° 20:02:40 10° 232° (SW) 2,298 6.0 -27.2°
Maximum altitude 20:05:39 16° 269° (W) 1,938 5.9 -27.7°
Drops below altitude 10° 20:08:39 10° 305° (NW) 2,307 6.2 -28.3°
Sets 20:11:56 0° 327° (NNW) 3,239 6.8 -29.0°
